Date,TemperatureHighF,TemperatureAvgF,TemperatureLowF,DewpointHighF,DewpointAvgF,DewpointLowF,HumidityHigh,HumidityAvg,HumidityLow,PressureMaxIn,PressureMinIn,WindSpeedMaxMPH,WindSpeedAvgMPH,GustSpeedMaxMPH,PrecipitationSumIn
2013-2-1,0.0,-7.0,-17.7,-6.1,-12.8,-23.2,75,75,75,30.03,29.88,8,2,14,0.00
2013-2-2,13.3,2.3,-11.7,6.8,-3.8,-17.4,75,75,75,29.94,29.76,4,1,12,0.00
2013-2-3,15.1,6.2,1.9,6.2,-4.0,-13.2,75,63,48,29.82,29.74,7,1,15,0.00
2013-2-4,14.7,2.1,-15.0,-2.3,-13.4,-28.9,48,47,46,29.85,29.62,8,1,12,0.00
2013-2-5,21.9,12.7,1.8,15.5,3.7,-8.4,94,68,46,29.88,29.50,4,1,12,0.04
2013-2-6,22.1,12.8,-2.6,19.2,6.4,-10.5,92,76,64,29.94,29.82,3,1,13,0.00
2013-2-7,25.9,22.0,16.5,20.8,18.8,12.8,94,88,78,30.09,29.91,7,2,15,0.00
2013-2-8,27.0,16.9,5.7,16.4,9.8,0.8,89,74,56,30.21,30.09,4,1,11,0.04
2013-2-9,26.1,19.9,8.6,21.9,16.2,0.8,97,86,69,30.09,29.85,8,3,22,0.00
2013-2-10,32.2,26.7,22.5,32.2,26.5,21.7,100,99,96,29.85,29.20,5,2,15,0.00
2013-2-11,30.6,25.7,20.5,30.6,23.3,16.3,100,91,79,29.79,29.17,5,1,11,0.00
2013-2-12,31.5,22.3,15.1,21.8,17.4,12.2,89,82,67,29.82,29.62,5,1,22,0.09
2013-2-13,39.9,29.5,19.6,27.6,23.5,16.9,91,79,59,29.62,29.50,5,2,11,0.20
2013-2-14,30.4,22.7,8.4,25.0,15.4,-3.3,91,74,56,29.91,29.50,6,2,13,0.00
2013-2-15,17.1,9.6,2.7,2.0,-4.3,-12.2,58,53,46,30.03,29.91,6,1,15,0.00
2013-2-16,18.3,3.4,-10.7,1.1,-12.1,-24.9,50,48,46,30.00,29.94,4,1,10,0.00
2013-2-17,59.2,12.9,-8.0,44.0,-1.8,-25.8,81,52,23,29.94,28.52,9,3,27,0.00
2013-2-18,33.1,25.0,13.8,24.4,18.4,8.0,92,76,62,29.59,29.38,7,3,23,0.00
2013-2-19,13.5,4.8,-2.2,7.6,-0.8,-7.6,77,77,77,30.06,29.53,8,4,19,0.00
2013-2-20,21.6,10.0,1.9,6.4,-1.1,-12.4,77,62,46,30.24,30.09,5,2,11,0.00
2013-2-21,30.2,12.3,-6.3,14.0,-0.1,-20.1,81,58,45,30.27,29.97,5,2,12,0.00
2013-2-22,29.5,22.9,18.3,22.1,17.9,13.5,87,81,72,29.97,29.68,6,2,11,0.00
2013-2-23,35.1,27.1,20.8,26.7,22.6,17.6,91,84,67,29.74,29.65,3,0,7,0.00
2013-2-24,38.5,29.0,18.5,25.6,22.2,13.9,90,76,55,29.94,29.76,4,1,11,0.08
2013-2-25,34.5,22.8,9.1,26.4,16.7,4.8,82,78,67,29.97,29.91,8,1,11,0.00
2013-2-26,41.4,25.5,9.0,28.5,17.9,4.3,89,74,53,29.94,29.76,8,3,22,0.20
2013-2-27,30.7,29.3,28.4,25.7,23.8,21.6,85,80,73,29.85,29.74,8,4,18,0.00
2013-2-28,28.6,24.7,21.2,22.0,17.1,12.8,80,73,63,30.09,29.85,8,3,18,0.00